SJ-11-03

导读 | 豆包AI

SJ-11-03星即实践十一号03星,是中国于2011年7月6日在酒泉卫星发射中心,用长征二号丙运载火箭成功发射的科学试验卫星。该卫星由中国航天科技集团公司东方红卫星有限公司研制,运行在近地点约691公里、远地点约700公里,倾角98.3°的轨道,主要用于开展空间科学与技术试验,是长征系列运载火箭第139次飞行任务。

Basic Information
目录编号:
37730
目录名称:
SJ-11-03
国际标识:
2011-030A
轨道中心:
EARTH
卫星名称:
SJ-11-03
卫星全名:
--
卫星状态:
在轨 (已飞行5412 天)
发射日期:
2011-07-06 UTC
国别 :
中国 (CN)
星等 :
--
Orbit Information
数据来源 国际轨道数据
星历时间: 2026-04-30T13:45:23+0800
10小时前
查看轨道信息
半长轴: 7057.505km
偏心率: 0.0007982
轨道倾角: 97.930°
近地点辐角 175.070°
升交点赤经 86.020°
平近点角 275.360°
近地点: 673.734km
远地点: 685.002km
周期: 98.341分钟
每日圈数: 14.642863
Detailed Information
使用方式:
暂无
2D Orbit Map
3D Orbit Map
Orbit Altitude Analysis Chart
Orbit Inclination Analysis Chart
Orbit Comprehensive Analysis Chart
View Comprehensive Chart